Weather History for Warrensburg, MO

Change the Weather History Date:

Tuesday, July 23, 2013

  Actual Average (KSZL) Record (KSZL)
Temperature  
Mean Temperature 26 °C -  
Max Temperature 30 °C 30 °C 39 °C (2012)
Min Temperature 21 °C 20 °C 12 °C (2000)
Cooling Degree Days 12    
Growing Degree Days 28 (Base 50)    
Moisture  
Dew Point 19 °C    
Average Humidity 71    
Maximum Humidity 88    
Minimum Humidity 51    
Precipitation  
Precipitation 0.00 mm - - ()
Sea Level Pressure  
Sea Level Pressure 1011 hPa    
Wind  
Wind Speed 2 km/h (North)    
Max Wind Speed 21 km/h    
Max Gust Speed 26 km/h    
Visibility 16 kilometers    
Events      
Averages and records for this station are not official NWS values.
T = Trace of Precipitation, MM = Missing Value Source: NWS Daily Summary

Daily Weather History Graph

Daily Weather History Graph

Search for Another Location

Airport:

Trip Planner

Search our weather history database for the weather conditions in past years. The results will help you decide how hot, cold, wet, or windy it might be!

Date:

Astronomy

Jul. 23, 2013 Rise Set
Actual Time 6:08 AM CDT 8:33 PM CDT
Civil Twilight 5:38 AM CDT 9:04 PM CDT
Nautical Twilight 5:00 AM CDT 9:41 PM CDT
Astronomical Twilight 4:19 AM CDT 10:23 PM CDT
Moon 9:04 PM CDT (7/23) 7:17 AM CDT (7/23)
Length of Visible Light 15h 25m
Length of Day
14h 25m
Full, 99% of the Moon is Illuminated
Jul 23
Full
Jul 29
Last Quarter
Aug 6
New
Aug 14
First Quarter
Aug 20
Full

Hourly Weather History & Observations

Time (CDT) Temp. Heat Index Dew Point Humidity Pressure Visibility Wind Dir Wind Speed Gust Speed Precip Events Conditions
12:15 AM 24.0 °C - 18.0 °C 69% 1010.7 hPa 16.1 km Calm Calm - N/A   Clear
12:35 AM 24.0 °C - 18.0 °C 69% 1010.7 hPa 16.1 km Calm Calm - N/A   Clear
12:55 AM 24.0 °C - 19.0 °C 73% 1010.7 hPa 16.1 km Calm Calm - N/A   Clear
1:15 AM 24.0 °C - 19.0 °C 73% 1011.4 hPa 16.1 km Calm Calm - N/A   Clear
1:35 AM 24.0 °C - 19.0 °C 73% 1011.4 hPa 16.1 km Calm Calm - N/A   Clear
1:55 AM 23.0 °C - 19.0 °C 78% 1011.7 hPa 16.1 km Calm Calm - N/A   Clear
2:15 AM 23.0 °C - 19.0 °C 78% 1011.1 hPa 16.1 km Calm Calm - N/A   Clear
2:35 AM 23.0 °C - 20.0 °C 83% 1010.7 hPa 16.1 km Calm Calm - N/A   Clear
2:55 AM 23.0 °C - 20.0 °C 83% 1010.4 hPa 16.1 km Calm Calm - N/A   Clear
3:15 AM 23.0 °C - 20.0 °C 83% 1010.4 hPa 16.1 km Calm Calm - N/A   Clear
3:35 AM 23.0 °C - 20.0 °C 83% 1010.4 hPa 16.1 km Calm Calm - N/A   Clear
3:55 AM 22.0 °C - 19.0 °C 83% 1009.7 hPa 16.1 km Calm Calm - N/A   Clear
4:15 AM 21.0 °C - 19.0 °C 88% 1009.7 hPa 16.1 km Calm Calm - N/A   Clear
4:35 AM 21.0 °C - 19.0 °C 88% 1009.7 hPa 16.1 km Calm Calm - N/A   Clear
4:55 AM 21.0 °C - 19.0 °C 88% 1009.4 hPa 16.1 km Calm Calm - N/A   Clear
5:15 AM 21.0 °C - 19.0 °C 88% 1009.4 hPa 16.1 km Calm Calm - N/A   Clear
5:35 AM 21.0 °C - 19.0 °C 88% 1009.7 hPa 16.1 km Calm Calm - N/A   Clear
5:55 AM 21.0 °C - 19.0 °C 88% 1009.7 hPa 16.1 km Calm Calm - N/A   Clear
6:15 AM 22.0 °C - 19.0 °C 83% 1009.7 hPa 16.1 km Calm Calm - N/A   Clear
6:35 AM 22.0 °C - 19.0 °C 83% 1010.0 hPa 16.1 km Calm Calm - N/A   Clear
6:55 AM 22.0 °C - 20.0 °C 88% 1010.0 hPa 16.1 km Calm Calm - N/A   Clear
7:15 AM 22.0 °C - 20.0 °C 88% 1010.4 hPa 16.1 km Calm Calm - N/A   Clear
7:35 AM 23.0 °C - 20.0 °C 83% 1010.7 hPa 16.1 km Calm Calm - N/A   Clear
7:55 AM 23.0 °C - 20.0 °C 83% 1010.7 hPa 16.1 km Calm Calm - N/A   Clear
8:15 AM 25.0 °C - 21.0 °C 78% 1010.7 hPa 16.1 km Calm Calm - N/A   Clear
8:35 AM 25.0 °C - 21.0 °C 78% 1011.1 hPa 16.1 km Calm Calm - N/A   Clear
8:55 AM 26.0 °C - 21.0 °C 74% 1011.7 hPa 16.1 km Calm Calm - N/A   Clear
9:15 AM 26.0 °C - 21.0 °C 74% 1011.7 hPa 16.1 km Calm Calm - N/A   Clear
9:35 AM 27.0 °C 28.9 °C 21.0 °C 70% 1012.1 hPa 16.1 km Calm Calm - N/A   Clear
9:55 AM 27.0 °C 28.9 °C 21.0 °C 70% 1012.4 hPa 16.1 km NNW 14.8 km/h / 4.1 m/s - N/A   Clear
10:15 AM 28.0 °C 30.7 °C 22.0 °C 70% 1012.1 hPa 16.1 km NNW 11.1 km/h / 3.1 m/s - N/A   Clear
10:35 AM 28.0 °C 30.7 °C 22.0 °C 70% 1012.1 hPa 16.1 km NNW 14.8 km/h / 4.1 m/s - N/A   Clear
10:55 AM 28.0 °C 30.2 °C 21.0 °C 66% 1012.4 hPa 16.1 km NNW 16.7 km/h / 4.6 m/s - N/A   Scattered Clouds
11:15 AM 28.0 °C 30.2 °C 21.0 °C 66% 1012.1 hPa 16.1 km NNE 18.5 km/h / 5.1 m/s - N/A   Clear
11:35 AM 27.0 °C 28.9 °C 21.0 °C 70% 1012.4 hPa 16.1 km NNW 14.8 km/h / 4.1 m/s - N/A   Clear
11:55 AM 27.0 °C 28.9 °C 21.0 °C 70% 1013.1 hPa 16.1 km North 16.7 km/h / 4.6 m/s - N/A   Mostly Cloudy
12:15 PM 27.0 °C 28.5 °C 20.0 °C 65% 1012.8 hPa 16.1 km Calm Calm - N/A   Scattered Clouds
12:35 PM 27.0 °C 28.5 °C 20.0 °C 65% 1012.4 hPa 16.1 km NNE 18.5 km/h / 5.1 m/s - N/A   Clear
12:55 PM 27.0 °C 28.2 °C 19.0 °C 61% 1012.4 hPa 16.1 km Calm Calm - N/A   Clear
1:15 PM 28.0 °C 29.2 °C 19.0 °C 58% 1012.4 hPa 16.1 km Calm Calm - N/A   Clear
1:35 PM 28.0 °C 29.2 °C 19.0 °C 58% 1012.4 hPa 16.1 km NNE 7.4 km/h / 2.1 m/s - N/A   Clear
2:15 PM 28.0 °C 29.7 °C 20.0 °C 62% 1012.1 hPa 16.1 km Calm Calm - N/A   Clear
2:35 PM 29.0 °C 30.3 °C 19.0 °C 55% 1011.7 hPa 16.1 km Calm Calm - N/A   Clear
3:15 PM 30.0 °C 31.9 °C 20.0 °C 55% 1012.4 hPa 16.1 km North 20.4 km/h / 5.7 m/s 25.9 km/h / 7.2 m/s N/A   Clear
3:35 PM 29.0 °C 30.7 °C 20.0 °C 58% 1012.1 hPa 16.1 km NNE 7.4 km/h / 2.1 m/s - N/A   Clear
3:55 PM 29.0 °C 30.7 °C 20.0 °C 58% 1011.7 hPa 16.1 km North 13.0 km/h / 3.6 m/s 25.9 km/h / 7.2 m/s N/A   Clear
4:15 PM 29.0 °C 30.7 °C 20.0 °C 58% 1011.4 hPa 16.1 km Calm Calm - N/A   Clear
4:35 PM 29.0 °C 30.7 °C 20.0 °C 58% 1011.4 hPa 16.1 km Calm Calm - N/A   Clear
4:55 PM 30.0 °C 31.9 °C 20.0 °C 55% 1011.4 hPa 16.1 km North 9.3 km/h / 2.6 m/s - N/A   Clear
5:15 PM 29.0 °C 29.8 °C 18.0 °C 51% 1011.1 hPa 16.1 km Calm Calm - N/A   Clear
5:35 PM 29.0 °C 29.8 °C 18.0 °C 51% 1010.7 hPa 16.1 km Calm Calm - N/A   Clear
5:55 PM 29.0 °C 29.8 °C 18.0 °C 51% 1010.4 hPa 16.1 km Calm Calm - N/A   Clear
6:15 PM 29.0 °C 29.8 °C 18.0 °C 51% 1010.4 hPa 16.1 km Calm Calm - N/A   Clear
6:35 PM 28.0 °C 29.2 °C 19.0 °C 58% 1010.7 hPa 16.1 km Calm Calm - N/A   Clear
6:55 PM 28.0 °C 28.8 °C 18.0 °C 54% 1011.1 hPa 16.1 km NNE 13.0 km/h / 3.6 m/s - N/A   Clear
7:15 PM 27.0 °C 27.9 °C 18.0 °C 58% 1011.4 hPa 16.1 km Calm Calm - N/A   Clear
7:35 PM 27.0 °C 28.2 °C 19.0 °C 61% 1011.7 hPa 16.1 km NNE 5.6 km/h / 1.5 m/s - N/A   Clear
7:55 PM 26.0 °C - 19.0 °C 65% 1012.1 hPa 16.1 km Calm Calm - N/A   Clear
8:15 PM 26.0 °C - 19.0 °C 65% 1012.1 hPa 16.1 km Calm Calm - N/A   Clear
8:35 PM 25.0 °C - 19.0 °C 69% 1012.4 hPa 16.1 km Calm Calm - N/A   Clear
8:55 PM 24.0 °C - 19.0 °C 73% 1012.4 hPa 16.1 km Calm Calm - N/A   Clear
9:15 PM 24.0 °C - 19.0 °C 73% 1012.8 hPa 16.1 km Calm Calm - N/A   Clear
9:35 PM 23.0 °C - 19.0 °C 78% 1012.8 hPa 16.1 km Calm Calm - N/A   Clear
9:55 PM 23.0 °C - 18.0 °C 73% 1012.4 hPa 16.1 km Calm Calm - N/A   Clear
10:15 PM 23.0 °C - 18.0 °C 73% 1012.8 hPa 16.1 km Calm Calm - N/A   Clear
10:35 PM 23.0 °C - 17.0 °C 69% 1013.1 hPa 16.1 km Calm Calm - N/A   Clear
10:55 PM 22.0 °C - 17.0 °C 73% 1013.4 hPa 16.1 km Calm Calm - N/A   Clear
11:15 PM 22.0 °C - 17.0 °C 73% 1013.1 hPa 16.1 km Calm Calm - N/A   Clear
11:35 PM 22.0 °C - 16.0 °C 69% 1013.4 hPa 16.1 km Calm Calm - N/A   Clear
11:55 PM 22.0 °C - 16.0 °C 69% 1013.4 hPa 16.1 km Calm Calm - N/A   Clear